Fox-1Cliff (99995 NORAD) Tracking and Keplerian Element Data

This shows tracking and keplerian element data for the satellite.

Feedback or suggestion? Click here.




ElementValue
Catalog99995
NameFox-1Cliff
Epoch Orbit1
Epoch Day337.80370529
Epoch Year2018
RAAN46.9569
Inclination97.7684
Eccentricity0.0012665
Argument of Perigee260.4419
Mean Anonmoly20.6997
Mean Motion14.94922885
Decay Rate0
L11 99995U 18095A 18337.80370529 .00000000 00000-0 00000-0 0 14
L22 99995 97.7684 46.9569 0012665 260.4419 20.6997 14.94922885 15

Live tracking and technical data element details for Fox-1Cliff (NORAD 99995). Fox-1Cliff can be tracked NOW for your location showing map with azimuth and elevation plus other details from your city location.

Track the satellite on the map from your city or location and see movement details for azimuth, elevation, latitude, longitude, range, height, and movement on the map or in text.







IsCatalogInMostPopularTable: catalog: 99995, numindb: 19
Update: records affected: 1



GetName: 99995 Fox-1Cliff

Hit Count: updated at: Tue, 11 Dec 2018 03:34:46 GMT